Regional Weather Roundup
Issued by NWS

Home | Current Version | Previous Version | Graphics & Text | Print | Product List | Glossary Off
Versions: 1 2 3 4 5 6 7 8 9 10 11 12 13 14 15 16 17 18 19 20 21 22 23 24 25 26 27 28 29 30 31 32 33 34 35 36 37 38 39 40 41 42 43 44 45 46 47 48 49 50

000
ASUS43 KDMX 242101
RWRIA

WEATHER ROUNDUP FOR IOWA
NATIONAL WEATHER SERVICE DES MOINES IA
400 PM CDT SAT JUN 24 2017

NOTE: "FAIR" INDICATES FEW OR NO CLOUDS BELOW 12,000 FEET WITH NO
SIGNIFICANT WEATHER AND/OR OBSTRUCTIONS TO VISIBILITY.

* - THESE STATIONS ARE NOT NWS STATIONS...THUS NOT UNDER NWS
QUALITY CONTROL.  THEY ALSO DO NOT REPORT WEATHER SUCH
AS PRECIPITATION OR FOG.

IAZ001>003-012>014-020>022-031>034-043>046-242200-
   NORTHWEST IOWA

CITY           SKY/WX    TMP DP  RH WIND       PRES   REMARKS
CARROLL *      PTSUNNY   77  36  22 W24G33    30.10S
CHEROKEE *     PTSUNNY   73  39  29 NW22G31   30.10F
DENISON *      MOSUNNY   77  37  24 W18G30    30.13S
LE MARS *      MOSUNNY   73  39  29 NW20G26   30.12S
ORANGE CITY *  MOSUNNY   72  43  35 NW26G35   30.11S
SHELDON *      MOSUNNY   72  39  30 NW20G30   30.09S
SIOUX CITY     MOSUNNY   78  38  23 NW25G31   30.11S
SPENCER        MOSUNNY   72  37  28 NW23G38   30.09R
STORM LAKE *   SUNNY     73  39  29 NW21G31   30.10S
$$

IAZ055>058-069>071-079>083-090>094-242200-
   SOUTHWEST IOWA

CITY           SKY/WX    TMP DP  RH WIND       PRES   REMARKS
ATLANTIC *     MOSUNNY   77  39  25 W18G26    30.13F
AUDUBON *      SUNNY     75  34  22 W12G18    30.13F
CLARINDA *     MOSUNNY   79  46  31 W13G18    30.18F
COUNCIL BLFS * MOSUNNY   79  39  24 W22G29    30.14F
CRESTON *      PTSUNNY   75  39  27 W15G23    30.15F
HARLAN  *      MOSUNNY   77  41  27 NW17G26   30.16F
LAMONI         MOSUNNY   74  43  32 W15G25    30.16F
RED OAK *      SUNNY     79  45  29 W13G21    30.15F
SHENANDOAH *   MOSUNNY   79  45  29 W13       30.16F
$$

IAZ047>049-059>061-072>074-084-242200-
   CENTRAL IOWA

CITY           SKY/WX    TMP DP  RH WIND       PRES   REMARKS
AMES           CLOUDY    77  42  28 W21G32    30.08F
ANKENY *       MOSUNNY   75  41  29 W21       30.10F
BOONE *        PTSUNNY   75  39  27 W22G32    30.07F
CHARITON *     MOSUNNY   77  41  27 W18G25    30.13F
DES MOINES     PTSUNNY   74  41  30 W15       30.10F
GRINNELL*      PTSUNNY   73  41  30 W14G21    30.10F
KNOXVILLE *    MOSUNNY   75  43  31 W14G24    30.10F
MARSHALLTOWN   CLOUDY    72  41  32 W17G28    30.06F
NEWTON *       SUNNY     75  43  31 W18G25    30.09F
PELLA *        SUNNY     76  41  28 W15       30.12F
PERRY *        PTSUNNY   74  37  25 W20       30.10F
$$

IAZ004>006-015-016-023>025-035-036-242200-
   NORTH CENTRAL IOWA

CITY           SKY/WX    TMP DP  RH WIND       PRES   REMARKS
ALGONA *       PTSUNNY   72  37  28 NW21G35   30.06S
CLARION *        N/A     72  41  33 W25       30.05F
ESTHERVILLE    PTSUNNY   68  43  40 NW26G36   30.08R
FORT DODGE *   CLOUDY    72  41  33 W15G28    30.08F
MASON CITY     CLOUDY    65  44  46 NW21G32   30.05S THUNDER
FOREST CITY *    N/A     68  41  37 W20G25    30.04S
WEBSTER CITY * CLOUDY    72  39  30 W18       30.05F
IOWA FALLS *     N/A     73  42  31 W17G24    30.07F
$$

IAZ007>011-017>019-026>030-037>042-050>054-066-242200-
   NORTHEAST IOWA

CITY           SKY/WX    TMP DP  RH WIND       PRES   REMARKS
CEDAR RAPIDS   MOSUNNY   73  45  36 W16G25    30.07F
CHARLES CITY * CLOUDY    61  50  67 N9G17     30.05R
CLINTON *      MOSUNNY   72  45  37 W21       30.07S
DECORAH *      CLOUDY    64  45  48 NW17G32   30.04R
DUBUQUE        MOSUNNY   70  42  36 NW21G30   30.07F
MONTICELLO *   MOSUNNY   72  45  37 W14G20    30.06F
OELWEIN *      MOSUNNY   70  43  37 W20G25    30.04F
WATERLOO       CLOUDY    74  40  29 W18G26    30.03F
$$

IAZ064-065-067-068-078-242200-
   EAST CENTRAL IOWA

CITY           SKY/WX    TMP DP  RH WIND       PRES   REMARKS
DAVENPORT      SUNNY     72  43  35 NW21      30.08F
IOWA CITY      MOSUNNY   75  43  31 W13G22    30.10F
MT. PLEASANT * SUNNY     74  37  26 W13G21    30.12F
MUSCATINE *    SUNNY     75  37  25 NW17G23   30.10F
QUAD CITIES    SUNNY     75  41  29 NW16G28   30.08S
$$

IAZ062-063-075>077-085>089-095>099-242200-
   SOUTHEAST IOWA

CITY           SKY/WX    TMP DP  RH WIND       PRES   REMARKS
BURLINGTON     SUNNY     75  42  30 W13G21    30.11F
FAIRFIELD *    MOSUNNY   75  37  25 NW16G23   30.12F
FORT MADISON * SUNNY     75  41  29 W14G23    30.13S
KEOKUK *       SUNNY     75  41  29 NW13G22   30.12F
OSKALOOSA *      N/A     75  40  29 W14       30.12F
OTTUMWA        MOSUNNY   74  40  29 NW13G20   30.12F
WASHINGTON *   MOSUNNY   73  39  29 W13G25    30.12F
$$

ABBREVIATIONS USED IN REMARKS
   TC - TEMPERATURES IN CELSIUS
  WCI - WIND CHILL INDEX
   HX - HEAT INDEX
  VSB - VISIBILITY
$$





USA.gov is the U.S. government's official web portal to all federal, state and local government web resources and services.